DJ8HS-1 Weather Reports


time (UTC)temp
F
wind
direction
speed
knots
gust
knots
rain 1hr
in
rain 24hr
in
rain mn
in
humidity
%
barometer
mb
20260506051206 56 253 0.0 0.0 0.00 0.00 0.00 93
20260506050706 56 253 0.0 0.0 0.00 0.00 0.00 94
20260506050205 56 253 0.0 0.0 0.00 0.00 0.00 94
20260506044705 56 253 0.0 0.0 0.00 0.00 0.00 95
20260506044204 56 253 0.0 0.0 0.00 0.00 0.00 95
20260506043704 56 253 0.0 0.0 0.00 0.00 0.00 95
20260506043204 56 253 0.0 0.0 0.00 0.00 0.00 95
20260506042703 56 253 0.0 0.0 0.00 0.00 0.00 95
20260506042203 56 253 0.0 0.0 0.00 0.00 0.00 95
20260506041703 56 253 0.0 0.0 0.00 0.00 0.00 95
20260506041202 56 253 0.0 0.0 0.00 0.00 0.00 95
20260506040702 56 253 0.0 0.0 0.00 0.00 0.00 95
20260506040202 56 253 0.0 0.0 0.00 0.00 0.00 95
20260506035702 55 253 0.0 0.0 0.00 0.00 0.00 95
20260506035201 56 253 0.0 0.0 0.00 0.00 0.00 95
20260506034701 56 253 0.0 0.0 0.00 0.00 0.00 95
20260506034201 55 253 0.0 0.0 0.00 0.00 0.00 95
20260506033700 55 253 0.0 0.0 0.00 0.00 0.00 95
20260506033200 56 253 0.0 0.0 0.00 0.00 0.00 95
20260506032700 56 253 0.0 0.0 0.00 0.00 0.00 95
20260506032200 56 253 0.0 0.0 0.00 0.00 0.00 95
20260506031659 56 253 0.0 0.0 0.00 0.00 0.00 95
20260506031159 56 253 0.0 0.0 0.00 0.00 0.00 95
20260506030659 56 253 0.0 0.0 0.00 0.00 0.00 95
20260506030158 56 253 0.0 0.0 0.00 0.00 0.00 95
20260506025658 56 253 0.0 0.0 0.00 0.00 0.00 94
20260506025158 56 253 0.0 0.0 0.00 0.00 0.00 94
20260506024657 56 253 0.0 0.0 0.00 0.00 0.00 93
20260506024157 56 253 0.0 0.0 0.00 0.00 0.00 93
20260506023657 56 253 0.0 0.0 0.00 0.00 0.00 93
20260506023157 56 253 0.0 0.0 0.00 0.00 0.00 94
20260506022656 56 253 0.0 0.0 0.00 0.00 0.00 94
20260506022156 56 253 0.0 0.0 0.00 0.00 0.00 94
20260506021656 57 253 0.0 0.0 0.00 0.00 0.00 94
20260506021155 56 253 0.0 0.0 0.00 0.00 0.00 94
20260506020655 56 253 0.0 0.0 0.00 0.00 0.00 95
20260506020155 56 253 0.0 0.0 0.00 0.00 0.00 95
20260506015655 56 253 0.0 0.0 0.00 0.00 0.00 95
20260506015154 56 253 0.0 0.0 0.00 0.00 0.00 95
20260506014654 56 253 0.0 0.0 0.00 0.00 0.00 95
20260506014154 56 253 0.0 0.0 0.00 0.00 0.00 95
20260506013653 56 253 0.0 0.0 0.00 0.00 0.00 95
20260506013153 56 253 0.0 0.0 0.00 0.00 0.00 95
20260506012653 56 253 0.0 0.0 0.00 0.00 0.00 94
20260506012153 57 253 0.0 0.0 0.00 0.00 0.00 94
20260506011652 56 253 0.0 0.0 0.00 0.00 0.00 94
20260506011152 56 253 0.0 1.7 0.00 0.00 0.00 94
20260506010652 57 223 0.0 2.6 0.00 0.00 0.00 93
20260506010151 57 264 2.6 2.6 0.00 0.00 0.00 93
20260506005651 57 202 0.0 1.7 0.00 0.00 0.00 93
20260506005151 57 220 0.0 0.0 0.00 0.00 0.00 94
20260506004150 57 220 0.0 2.6 0.00 0.00 0.00 94
20260506003650 57 202 0.0 0.0 0.00 0.00 0.00 94
20260506003150 57 202 0.0 2.6 0.00 0.00 0.00 94
20260506002649 58 180 0.0 0.0 0.00 0.00 0.00 94
20260506002149 58 180 0.0 0.0 0.00 0.00 0.00 95
20260506001649 58 180 0.0 0.0 0.00 0.00 0.00 95
20260506001148 58 180 0.0 2.6 0.00 0.00 0.00 95
20260506000648 58 248 0.0 3.5 0.00 0.00 0.00 95
20260506000148 58 219 0.0 1.7 0.00 0.00 0.00 95
20260505235648 58 253 0.0 2.6 0.00 0.00 0.00 95
20260505235147 58 230 0.0 0.0 0.00 0.00 0.00 95
20260505234647 58 230 0.0 0.0 0.00 0.00 0.00 95
20260505234147 59 230 0.0 0.0 0.00 0.00 0.00 95
20260505233646 58 230 0.0 0.0 0.00 0.00 0.00 94
20260505233146 59 230 0.0 0.0 0.00 0.00 0.00 94
20260505232646 58 230 0.0 0.0 0.00 0.00 0.00 94
20260505232145 58 230 0.0 0.0 0.00 0.00 0.00 94
20260505231645 58 230 0.0 0.0 0.00 0.00 0.00 94
20260505231145 58 230 0.0 0.0 0.00 0.00 0.00 94
20260505230645 59 230 0.0 0.0 0.00 0.00 0.00 94
20260505230144 58 230 0.0 0.0 0.00 0.00 0.00 94
20260505225644 58 230 0.0 0.0 0.00 0.00 0.00 93
20260505225144 58 230 0.0 0.0 0.00 0.00 0.00 92
20260505224643 58 230 0.0 0.0 0.00 0.00 0.00 92
20260505224143 59 230 0.0 0.0 0.00 0.00 0.00 92
20260505223643 59 230 0.0 0.0 0.00 0.00 0.00 91
20260505223143 59 230 0.0 0.0 0.00 0.00 0.00 91
20260505222642 59 230 0.0 0.0 0.00 0.00 0.00 91
20260505222142 59 230 0.0 0.0 0.00 0.00 0.00 91
20260505221642 59 230 0.0 0.0 0.00 0.00 0.00 91
20260505221142 59 230 0.0 0.0 0.00 0.00 0.00 90
20260505220645 59 230 0.0 0.0 0.00 0.00 0.00 90
20260505220141 59 230 0.0 0.0 0.00 0.00 0.00 90
20260505215640 59 230 0.0 0.0 0.00 0.00 0.00 90
20260505215140 59 230 0.0 0.0 0.00 0.00 0.00 90
20260505214640 59 230 0.0 0.0 0.00 0.00 0.00 91
20260505214140 59 230 0.0 0.0 0.00 0.00 0.00 91
20260505213639 59 230 0.0 0.0 0.00 0.00 0.00 91
20260505213139 59 230 0.0 0.0 0.00 0.00 0.00 91
20260505212639 59 230 0.0 0.0 0.00 0.00 0.00 91
20260505212138 59 230 0.0 0.0 0.00 0.00 0.00 91
20260505211638 59 230 0.0 0.0 0.00 0.00 0.00 91
20260505211138 59 230 0.0 0.0 0.00 0.00 0.00 90
20260505210637 60 230 0.0 0.0 0.00 0.00 0.00 90
20260505210137 60 230 0.0 0.0 0.00 0.00 0.00 90
20260505205637 59 230 0.0 0.0 0.00 0.00 0.00 89
20260505205137 59 230 0.0 0.0 0.00 0.00 0.00 89
20260505204636 59 230 0.0 0.0 0.00 0.00 0.00 89
20260505204136 60 230 0.0 0.0 0.00 0.00 0.00 88
20260505203636 60 230 0.0 0.0 0.00 0.00 0.00 88
20260505203135 60 230 0.0 0.0 0.00 0.00 0.00 88
20260505202635 60 230 0.0 0.0 0.00 0.00 0.00 88
20260505202135 60 230 0.0 0.0 0.00 0.00 0.00 88
20260505201635 60 230 0.0 0.0 0.00 0.00 0.00 88
20260505201134 60 230 0.0 0.0 0.00 0.00 0.00 87
20260505200634 60 230 0.0 0.0 0.00 0.00 0.00 87
20260505200134 60 230 0.0 0.0 0.00 0.00 0.00 87
20260505195633 60 230 0.0 0.0 0.00 0.00 0.00 87
20260505195133 60 230 0.0 0.0 0.00 0.00 0.00 86
20260505194633 60 230 0.0 0.0 0.00 0.00 0.00 85
20260505194133 60 230 0.0 0.0 0.00 0.00 0.00 85
20260505193632 60 230 0.0 0.0 0.00 0.00 0.00 85
20260505193132 60 230 0.0 0.0 0.00 0.00 0.00 85
20260505192632 60 230 0.0 0.0 0.00 0.00 0.00 84
20260505192131 60 230 0.0 0.0 0.00 0.00 0.00 84
20260505191631 60 230 0.0 0.0 0.00 0.00 0.00 84
20260505191131 60 230 0.0 0.0 0.00 0.00 0.00 84
20260505190630 61 230 0.0 0.0 0.00 0.00 0.00 85
20260505190130 61 230 0.0 0.0 0.00 0.00 0.00 84
20260505185630 61 230 0.0 0.0 0.00 0.00 0.00 84
20260505185129 61 230 0.0 0.0 0.00 0.00 0.00 83
20260505184629 60 230 0.0 0.0 0.00 0.00 0.00 84
20260505184129 60 230 0.0 0.0 0.00 0.00 0.00 83
20260505183629 61 230 0.0 0.0 0.00 0.00 0.00 83
20260505183128 61 230 0.0 0.0 0.00 0.00 0.00 83
20260505182628 61 230 0.0 0.0 0.00 0.00 0.00 83
20260505182128 61 230 0.0 0.0 0.00 0.00 0.00 82
20260505181627 61 230 0.0 0.0 0.00 0.00 0.00 82
20260505181127 61 230 0.0 0.0 0.00 0.00 0.00 82
20260505180627 61 230 0.0 0.0 0.00 0.00 0.00 81
20260505180127 61 230 0.0 0.0 0.00 0.00 0.00 81
20260505175626 61 230 0.0 0.0 0.00 0.00 0.00 81
20260505175126 61 230 0.0 0.0 0.00 0.00 0.00 81
20260505174626 61 230 0.0 0.0 0.00 0.00 0.00 81
20260505174125 61 230 0.0 0.0 0.00 0.00 0.00 81
20260505173625 61 230 0.0 0.0 0.00 0.00 0.00 80
20260505173125 61 230 0.0 0.0 0.00 0.00 0.00 80
20260505172625 61 230 0.0 0.0 0.00 0.00 0.00 80
20260505172124 62 230 0.0 0.0 0.00 0.00 0.00 80
20260505171624 62 230 0.0 0.0 0.00 0.00 0.00 80
20260505171124 62 230 0.0 0.0 0.00 0.00 0.00 80
20260505170623 62 230 0.0 0.0 0.00 0.00 0.00 80
20260505170123 62 230 0.0 0.0 0.00 0.00 0.00 80
20260505165623 62 230 0.0 0.0 0.00 0.00 0.00 80
20260505165122 62 230 0.0 0.0 0.00 0.00 0.00 80
20260505164622 62 230 0.0 0.0 0.00 0.00 0.00 81
20260505164122 62 230 0.0 0.0 0.00 0.00 0.00 81
20260505163622 62 230 0.0 0.0 0.00 0.00 0.00 82
20260505163121 62 230 0.0 0.0 0.00 0.00 0.00 82
20260505162621 62 230 0.0 0.0 0.00 0.00 0.00 81
20260505162121 62 230 0.0 0.9 0.00 0.00 0.00 81
20260505161620 62 226 0.0 1.7 0.00 0.00 0.00 81
20260505161120 62 244 0.0 0.0 0.00 0.00 0.00 81
20260505160620 62 244 0.0 0.9 0.00 0.00 0.00 81
20260505160120 62 250 0.0 1.7 0.00 0.00 0.00 81
20260505153118 62 192 0.9 3.5 0.00 0.00 0.00 82
20260505152617 62 270 0.0 1.7 0.00 0.00 0.00 81
20260505152117 62 227 0.0 1.7 0.00 0.00 0.00 81
20260505151619 62 202 0.0 3.5 0.00 0.00 0.00 81
20260505151117 62 240 1.7 1.7 0.00 0.00 0.00 80
20260505150616 62 275 0.0 4.3 0.00 0.00 0.00 80
20260505150116 62 229 0.0 4.3 0.00 0.00 0.00 80
20260505140613 64 185 0.9 3.5 0.00 0.00 0.00 75
20260505140112 64 284 0.0 1.7 0.00 0.00 0.00 74
20260505130109 67 303 0.0 1.7 0.00 0.00 0.00 64
20260505124608 67 293 1.7 3.5 0.00 0.00 0.00 61
20260505124108 68 251 1.7 5.2 0.00 0.00 0.00 59
20260505123607 68 203 1.7 4.3 0.00 0.00 0.00 56
20260505123107 68 298 0.9 5.2 0.00 0.00 0.00 54
20260505122607 69 275 1.7 3.5 0.00 0.00 0.00 53
20260505122107 69 260 0.0 3.5 0.00 0.00 0.00 51
20260505121606 69 216 0.0 3.5 0.00 0.00 0.00 51
20260505121106 69 212 0.9 2.6 0.00 0.00 0.00 51
20260505120606 69 191 0.0 2.6 0.00 0.00 0.00 51
20260505120105 69 205 0.0 4.3 0.00 0.00 0.00 51
20260505115605 70 286 1.7 3.5 0.00 0.00 0.00 50
20260505115105 70 157 0.9 4.3 0.00 0.00 0.00 49
20260505114604 70 239 2.6 4.3 0.00 0.00 0.00 49
20260505114104 71 248 2.6 4.3 0.00 0.00 0.00 49
20260505113604 72 237 1.7 5.2 0.00 0.00 0.00 48
20260505113104 71 112 0.0 4.3 0.00 0.00 0.00 48
20260505112603 71 270 2.6 2.6 0.00 0.00 0.00 47
20260505112103 72 220 0.0 3.5 0.00 0.00 0.00 47
20260505111603 73 163 0.9 6.1 0.00 0.00 0.00 44
20260505111102 74 257 1.7 3.5 0.00 0.00 0.00 41
20260505110602 75 247 1.7 4.3 0.00 0.00 0.00 39
20260505102100 76 25 0.0 4.3 0.00 0.00 0.00 38
20260505101559 76 232 0.9 4.3 0.00 0.00 0.00 39
20260505101059 75 209 0.9 3.5 0.00 0.00 0.00 40
20260505100559 75 206 0.9 2.6 0.00 0.00 0.00 39
20260505100058 75 213 0.0 2.6 0.00 0.00 0.00 39
20260505095558 75 265 0.0 1.7 0.00 0.00 0.00 39
20260505095058 75 229 1.7 2.6 0.00 0.00 0.00 38
20260505094557 76 236 0.0 2.6 0.00 0.00 0.00 37
20260505094057 76 198 0.9 2.6 0.00 0.00 0.00 37
20260505093557 77 206 0.9 1.7 0.00 0.00 0.00 38
20260505093057 76 189 1.7 2.6 0.00 0.00 0.00 38
20260505092556 76 212 2.6 2.6 0.00 0.00 0.00 40
20260505092056 77 182 0.0 4.3 0.00 0.00 0.00 39
20260505091556 77 126 0.9 3.5 0.00 0.00 0.00 39
20260505091055 77 213 2.6 2.6 0.00 0.00 0.00 39
20260505090555 77 223 0.0 2.6 0.00 0.00 0.00 41
20260505090055 76 151 1.7 2.6 0.00 0.00 0.00 41
20260505085556 75 167 1.7 3.5 0.00 0.00 0.00 42
20260505085054 75 182 1.7 4.3 0.00 0.00 0.00 43
20260505084554 75 246 0.0 3.5 0.00 0.00 0.00 43
20260505084054 75 181 0.0 1.7 0.00 0.00 0.00 45
20260505083553 74 244 0.0 3.5 0.00 0.00 0.00 44
20260505083053 74 267 0.9 2.6 0.00 0.00 0.00 46
20260505082553 73 217 0.0 3.5 0.00 0.00 0.00 48
20260505082055 72 208 1.7 3.5 0.00 0.00 0.00 49
20260505081552 72 168 0.9 3.5 0.00 0.00 0.00 50
20260505081052 72 225 0.0 3.5 0.00 0.00 0.00 50
20260505080552 71 216 0.0 2.6 0.00 0.00 0.00 51
20260505080052 71 233 0.9 3.5 0.00 0.00 0.00 52
20260505075551 70 132 0.9 3.5 0.00 0.00 0.00 55
20260505075051 70 213 1.7 2.6 0.00 0.00 0.00 57
20260505074550 69 178 0.0 3.5 0.00 0.00 0.00 58
20260505074050 67 199 0.0 0.9 0.00 0.00 0.00 65
20260505073550 65 233 0.0 2.6 0.00 0.00 0.00 71
20260505073049 63 247 0.0 0.0 0.00 0.00 0.00 74
20260505072549 63 247 0.0 0.0 0.00 0.00 0.00 75
20260505072049 62 247 0.0 0.0 0.00 0.00 0.00 75
20260505071549 61 247 0.0 1.7 0.00 0.00 0.00 76
20260505071048 61 239 0.0 0.0 0.00 0.00 0.00 77
20260505070548 61 239 0.0 0.0 0.00 0.00 0.00 78
20260505070048 61 239 0.0 0.0 0.00 0.00 0.00 78
20260505065547 60 239 0.0 0.0 0.00 0.00 0.00 79
20260505065047 60 239 0.0 0.0 0.00 0.00 0.00 79
20260505064547 60 239 0.0 1.7 0.00 0.00 0.00 79
20260505064046 60 202 0.0 0.0 0.00 0.00 0.00 79
20260505063546 59 202 0.0 0.0 0.00 0.00 0.00 80
20260505063046 59 217 0.0 2.6 0.00 0.00 0.00 80
20260505062546 59 35 0.0 0.0 0.00 0.00 0.00 79
20260505062045 59 35 0.0 0.0 0.00 0.00 0.00 80
20260505061545 59 35 0.0 0.0 0.00 0.00 0.00 80
20260505061045 59 35 0.0 0.0 0.00 0.00 0.00 80
20260505060544 59 35 0.0 0.0 0.00 0.00 0.00 81
20260505060044 58 35 0.0 0.0 0.00 0.00 0.00 80
20260505055544 58 35 0.0 0.0 0.00 0.00 0.00 80
20260505055043 58 35 0.0 0.0 0.00 0.00 0.00 80